• En España
  • Lista de países
  • Para 7 días
  • Temperatura del agua
  • Mapa Satelital
  • El tiempo en el mapa
  • Informadores
  • user-avatar
    Iniciar sesión

    Tiempo cada hora Asadabad

    Hoy, 15 Noviembre, Jueves

    Tiempo Temperatura Precipitaciones Viento Presión Humedad
    00:00 +8°C° 0 mm 2 mps 658 mmHg 49%
    01:00 +7°C° 0 mm 2 mps 658 mmHg 47%
    02:00 +7°C° 0 mm 2 mps 658 mmHg 44%
    03:00 +7°C° 0 mm 2 mps 658 mmHg 41%
    04:00 +7°C° 0 mm 2 mps 659 mmHg 39%
    05:00 +6°C° 0 mm 2 mps 658 mmHg 35%
    06:00 +7°C° 0 mm 2 mps 659 mmHg 32%
    07:00 +8°C° 0 mm 2 mps 660 mmHg 30%
    08:00 +9°C° 0 mm 2 mps 660 mmHg 27%
    09:00 +12°C° 0 mm 2 mps 660 mmHg 26%
    10:00 +13°C° 0 mm 2 mps 660 mmHg 26%
    11:00 +15°C° 0 mm 1 mps 660 mmHg 26%
    12:00 +15°C° 0 mm 2 mps 660 mmHg 26%
    13:00 +16°C° 0 mm 2 mps 660 mmHg 26%
    14:00 +16°C° 0 mm 2 mps 660 mmHg 26%
    15:00 +15°C° 0 mm 2 mps 660 mmHg 31%
    16:00 +14°C° 0 mm 1 mps 659 mmHg 35%
    17:00 +13°C° 0 mm 1 mps 659 mmHg 40%
    18:00 +12°C° 0 mm 1 mps 659 mmHg 40%
    19:00 +11°C° 0 mm 1 mps 660 mmHg 39%
    20:00 +9°C° 0 mm 2 mps 660 mmHg 39%
    21:00 +9°C° 0 mm 2 mps 660 mmHg 36%
    22:00 +9°C° 0 mm 2 mps 660 mmHg 34%
    23:00 +9°C° 0 mm 3 mps 660 mmHg 31%

    Mañana, 16 Noviembre, Viernes

    Tiempo Temperatura Precipitaciones Viento Presión Humedad
    00:00 +8°C° 0 mm 3 mps 660 mmHg 29%
    01:00 +8°C° 0 mm 3 mps 660 mmHg 28%
    02:00 +8°C° 0 mm 3 mps 660 mmHg 26%
    03:00 +8°C° 0 mm 3 mps 659 mmHg 26%
    04:00 +8°C° 0 mm 3 mps 659 mmHg 25%
    05:00 +7°C° 0 mm 3 mps 659 mmHg 25%
    06:00 +8°C° 0 mm 3 mps 659 mmHg 24%
    07:00 +9°C° 0 mm 3 mps 659 mmHg 24%
    08:00 +10°C° 0 mm 3 mps 660 mmHg 23%
    09:00 +13°C° 0 mm 2 mps 660 mmHg 21%
    10:00 +15°C° 0 mm 2 mps 660 mmHg 19%
    11:00 +18°C° 0 mm 1 mps 660 mmHg 16%
    12:00 +19°C° 0 mm 1 mps 660 mmHg 16%
    13:00 +18°C° 0 mm 2 mps 659 mmHg 17%
    14:00 +19°C° 0 mm 2 mps 659 mmHg 17%
    15:00 +17°C° 0 mm 2 mps 658 mmHg 21%
    16:00 +15°C° 0 mm 1 mps 658 mmHg 26%
    17:00 +14°C° 0 mm 1 mps 658 mmHg 30%
    18:00 +13°C° 0 mm 2 mps 658 mmHg 29%
    19:00 +12°C° 0 mm 2 mps 658 mmHg 27%
    20:00 +11°C° 0 mm 3 mps 659 mmHg 26%
    21:00 +10°C° 0 mm 3 mps 659 mmHg 25%
    22:00 +10°C° 0 mm 3 mps 659 mmHg 24%
    23:00 +10°C° 0 mm 3 mps 658 mmHg 23%

    Pasado mañana, 17 Noviembre, Sábado

    Tiempo Temperatura Precipitaciones Viento Presión Humedad
    00:00 +9°C° 0 mm 3 mps 658 mmHg 22%
    01:00 +9°C° 0 mm 3 mps 658 mmHg 21%
    02:00 +9°C° 0 mm 3 mps 657 mmHg 20%
    03:00 +9°C° 0 mm 3 mps 657 mmHg 19%
    04:00 +8°C° 0 mm 3 mps 657 mmHg 19%
    05:00 +8°C° 0 mm 3 mps 656 mmHg 18%
    06:00 +9°C° 0 mm 3 mps 656 mmHg 18%
    07:00 +10°C° 0 mm 3 mps 657 mmHg 18%
    08:00 +10°C° 0 mm 3 mps 657 mmHg 19%
    09:00 +14°C° 0 mm 2 mps 657 mmHg 16%
    10:00 +16°C° 0 mm 2 mps 658 mmHg 14%
    11:00 +19°C° 0 mm 1 mps 658 mmHg 12%
    12:00 +19°C° 0 mm 1 mps 657 mmHg 12%
    13:00 +19°C° 0 mm 2 mps 657 mmHg 13%
    14:00 +19°C° 0 mm 2 mps 657 mmHg 13%
    15:00 +18°C° 0 mm 1 mps 656 mmHg 17%
    16:00 +16°C° 0 mm 1 mps 656 mmHg 22%
    17:00 +14°C° 0 mm 1 mps 655 mmHg 26%
    18:00 +13°C° 0 mm 1 mps 655 mmHg 27%
    19:00 +13°C° 0 mm 1 mps 656 mmHg 27%
    20:00 +12°C° 0 mm 1 mps 656 mmHg 27%
    21:00 +11°C° 0 mm 1 mps 656 mmHg 27%
    22:00 +11°C° 0 mm 1 mps 656 mmHg 28%
    23:00 +11°C° 0 mm 1 mps 656 mmHg 29%

    18 Noviembre, Domingo

    Tiempo Temperatura Precipitaciones Viento Presión Humedad
    00:00 +10°C° 0 mm 1 mps 656 mmHg 29%
    01:00 +10°C° 0 mm 1 mps 655 mmHg 30%
    02:00 +10°C° 0 mm 1 mps 655 mmHg 31%
    03:00 +10°C° 0 mm 1 mps 655 mmHg 31%
    04:00 +10°C° 0 mm 1 mps 655 mmHg 32%
    05:00 +10°C° 0 mm 1 mps 655 mmHg 32%
    06:00 +10°C° 0 mm 1 mps 656 mmHg 32%
    07:00 +11°C° 0 mm 1 mps 657 mmHg 32%
    08:00 +12°C° 0 mm 1 mps 657 mmHg 32%
    09:00 +13°C° 0 mm 1 mps 658 mmHg 28%
    10:00 +15°C° 0 mm 1 mps 658 mmHg 23%
    11:00 +18°C° 0 mm 1 mps 659 mmHg 19%
    12:00 +18°C° 0 mm 1 mps 659 mmHg 19%
    13:00 +18°C° 0 mm 1 mps 658 mmHg 18%
    14:00 +18°C° 0 mm 2 mps 658 mmHg 18%
    15:00 +16°C° 0 mm 1 mps 658 mmHg 22%
    16:00 +15°C° 0 mm 1 mps 658 mmHg 26%
    17:00 +13°C° 0 mm 1 mps 657 mmHg 31%
    18:00 +13°C° 0 mm 1 mps 658 mmHg 30%
    19:00 +12°C° 0 mm 1 mps 658 mmHg 29%
    20:00 +10°C° 0 mm 2 mps 658 mmHg 28%
    21:00 +10°C° 0 mm 2 mps 658 mmHg 29%
    22:00 +10°C° 0 mm 2 mps 659 mmHg 29%
    23:00 +10°C° 0 mm 2 mps 659 mmHg 30%

    19 Noviembre, Lunes

    Tiempo Temperatura Precipitaciones Viento Presión Humedad
    00:00 +9°C° 0 mm 2 mps 659 mmHg 30%
    01:00 +9°C° 0 mm 2 mps 659 mmHg 30%
    02:00 +9°C° 0 mm 2 mps 659 mmHg 30%
    03:00 +9°C° 0 mm 2 mps 659 mmHg 31%
    04:00 +8°C° 0 mm 2 mps 659 mmHg 31%
    05:00 +8°C° 0 mm 2 mps 658 mmHg 31%
    06:00 +9°C° 0 mm 2 mps 659 mmHg 31%
    07:00 +10°C° 0 mm 2 mps 660 mmHg 30%
    08:00 +10°C° 0 mm 2 mps 660 mmHg 30%
    09:00 +13°C° 0 mm 2 mps 661 mmHg 28%
    10:00 +15°C° 0 mm 2 mps 661 mmHg 26%
    11:00 +18°C° 0 mm 1 mps 661 mmHg 23%
    12:00 +18°C° 0 mm 1 mps 661 mmHg 24%
    13:00 +17°C° 0 mm 2 mps 661 mmHg 24%
    14:00 +18°C° 0 mm 2 mps 660 mmHg 25%
    15:00 +16°C° 0 mm 1 mps 660 mmHg 29%
    16:00 +15°C° 0 mm 1 mps 660 mmHg 33%
    17:00 +14°C° 0 mm 1 mps 659 mmHg 37%
    18:00 +13°C° 0 mm 1 mps 660 mmHg 37%
    19:00 +12°C° 0 mm 2 mps 660 mmHg 37%
    20:00 +12°C° 0 mm 2 mps 660 mmHg 37%
    21:00 +10°C° 0 mm 2 mps 660 mmHg 36%
    22:00 +10°C° 0 mm 2 mps 660 mmHg 36%
    23:00 +10°C° 0 mm 2 mps 660 mmHg 36%

    20 Noviembre, Martes

    Tiempo Temperatura Precipitaciones Viento Presión Humedad
    00:00 +9°C° 0 mm 2 mps 660 mmHg 35%
    01:00 +9°C° 0 mm 2 mps 660 mmHg 35%
    02:00 +9°C° 0 mm 3 mps 660 mmHg 34%
    03:00 +9°C° 0 mm 3 mps 660 mmHg 33%
    04:00 +8°C° 0 mm 3 mps 660 mmHg 33%
    05:00 +8°C° 0 mm 3 mps 660 mmHg 32%
    06:00 +9°C° 0 mm 3 mps 660 mmHg 30%
    07:00 +9°C° 0 mm 3 mps 661 mmHg 29%
    08:00 +10°C° 0 mm 3 mps 661 mmHg 27%
    09:00 +13°C° 0 mm 2 mps 662 mmHg 24%
    10:00 +15°C° 0 mm 2 mps 662 mmHg 20%
    11:00 +18°C° 0 mm 1 mps 662 mmHg 17%
    12:00 +18°C° 0 mm 1 mps 662 mmHg 17%
    13:00 +18°C° 0 mm 2 mps 661 mmHg 18%
    14:00 +18°C° 0 mm 2 mps 661 mmHg 18%
    15:00 +18°C° 0 mm 1 mps 661 mmHg 22%
    16:00 +15°C° 0 mm 1 mps 660 mmHg 26%
    17:00 +13°C° 0 mm 1 mps 660 mmHg 30%
    18:00 +13°C° 0 mm 1 mps 660 mmHg 28%
    19:00 +12°C° 0 mm 2 mps 660 mmHg 27%
    20:00 +10°C° 0 mm 2 mps 661 mmHg 26%
    21:00 +10°C° 0 mm 2 mps 661 mmHg 24%
    22:00 +10°C° 0 mm 2 mps 661 mmHg 23%
    23:00 +10°C° 0 mm 3 mps 661 mmHg 22%
    Mostrar más